TimeMDT,TemperatureF,Dew PointF,Humidity,Sea Level PressureIn,VisibilityMPH,Wind Direction,Wind SpeedMPH,Gust SpeedMPH,PrecipitationIn,Events,Conditions,WindDirDegrees,DateUTC
12:53 AM,61.0,44.1,54,29.47,10.0,ESE,8.1,-,N/A,,Clear,110,2013-09-22 06:53:00
1:53 AM,61.0,44.1,54,29.48,10.0,East,11.5,-,N/A,,Clear,100,2013-09-22 07:53:00
2:53 AM,57.0,45.0,64,29.47,10.0,SE,6.9,-,N/A,,Clear,130,2013-09-22 08:53:00
3:53 AM,55.9,46.0,69,29.49,10.0,NW,8.1,-,N/A,,Clear,320,2013-09-22 09:53:00
4:53 AM,57.0,45.0,64,29.49,10.0,ENE,8.1,-,N/A,,Clear,60,2013-09-22 10:53:00
5:53 AM,54.0,45.0,72,29.49,10.0,NW,6.9,-,N/A,,Clear,310,2013-09-22 11:53:00
6:53 AM,57.0,45.0,64,29.50,10.0,NNW,3.5,-,N/A,,Clear,330,2013-09-22 12:53:00
7:53 AM,59.0,45.0,60,29.52,10.0,WNW,5.8,-,N/A,,Clear,300,2013-09-22 13:53:00
8:53 AM,59.0,45.0,60,29.57,10.0,WNW,13.8,-,N/A,,Partly Cloudy,290,2013-09-22 14:53:00
9:53 AM,63.0,43.0,48,29.55,10.0,NNW,17.3,25.3,N/A,,Clear,340,2013-09-22 15:53:00
10:53 AM,66.9,41.0,39,29.55,10.0,NNW,15.0,20.7,N/A,,Clear,330,2013-09-22 16:53:00
11:53 AM,66.9,37.0,33,29.48,10.0,NNE,24.2,31.1,N/A,,Mostly Cloudy,20,2013-09-22 17:53:00
12:53 PM,72.0,33.1,24,29.44,10.0,NE,21.9,33.4,N/A,,Clear,40,2013-09-22 18:53:00
1:53 PM,69.1,41.0,36,29.50,10.0,West,12.7,-,N/A,,Clear,270,2013-09-22 19:53:00
2:53 PM,73.9,39.9,29,29.48,10.0,NW,17.3,24.2,N/A,,Clear,310,2013-09-22 20:53:00
3:53 PM,73.0,39.0,29,29.50,10.0,NNW,6.9,-,N/A,,Clear,340,2013-09-22 21:53:00
4:53 PM,73.9,41.0,30,29.50,10.0,North,13.8,-,N/A,,Clear,350,2013-09-22 22:53:00
5:53 PM,70.0,43.0,38,29.52,10.0,North,9.2,-,N/A,,Clear,360,2013-09-22 23:53:00
6:53 PM,66.0,44.1,45,29.53,10.0,North,9.2,-,N/A,,Clear,360,2013-09-23 00:53:00
7:53 PM,62.1,44.1,52,29.53,10.0,NNE,10.4,-,N/A,,Clear,20,2013-09-23 01:53:00
8:53 PM,61.0,44.1,54,29.54,10.0,North,8.1,-,N/A,,Clear,10,2013-09-23 02:53:00
9:53 PM,60.1,44.1,55,29.53,10.0,NNE,8.1,-,N/A,,Clear,20,2013-09-23 03:53:00
10:53 PM,55.0,46.0,72,29.54,10.0,WNW,4.6,-,N/A,,Clear,300,2013-09-23 04:53:00
11:53 PM,54.0,46.0,75,29.55,10.0,West,6.9,-,N/A,,Clear,280,2013-09-23 05:53:00